Regional Weather Roundup
Issued by NWS

Home | Current Version | Previous Version | Text Only | Print | Product List | Glossary Off
Versions: 1 2 3 4 5 6 7 8 9 10 11 12 13 14 15 16 17 18 19 20 21 22 23 24 25 26 27 28 29 30 31 32 33 34 35 36 37 38 39 40 41 42 43 44 45 46 47 48 49 50

000
ASUS43 KLMK 250810
RWRKY
KENTUCKY REGIONAL WEATHER ROUNDUP
NATIONAL WEATHER SERVICE LOUISVILLE KY
400 AM EDT MON SEP 25 2017

NOTE "FAIR" INDICATES FEW OR NO CLOUDS BELOW 12,000 FEET
WITH NO SIGNIFICANT WEATHER AND/OR OBSTRUCTIONS TO VISIBILITY.

KYZ001>023-026-027-061>063-070>075-250900-
WESTERN AND SOUTH CENTRAL KENTUCKY

CITY           SKY/WX    TMP DP  RH WIND       PRES   REMARKS
PADUCAH        CLEAR     64  61  90 CALM      29.98S
HENDERSON      CLOUDY    68  66  93 CALM      30.00S
OWENSBORO      CLEAR     70  67  90 CALM      30.00S
HOPKINSVILLE   PTCLDY    70  70 100 CALM      30.00S
BOWLING GREEN  CLEAR     67  67 100 CALM      30.01S FOG
GLASGOW        FOG      N/A N/A N/A CALM      30.01F VSB 1/4
$$

KYZ024-025-028>034-038-045-046-053-250900-
NORTH CENTRAL KENTUCKY

CITY           SKY/WX    TMP DP  RH WIND       PRES   REMARKS
LOUISVILLE/SDF PTCLDY    72  63  73 SE3       30.01S
LOUISVILLE/LOU PTCLDY    66  65  96 CALM      30.02S
FORT KNOX      CLEAR     65  62  91 CALM      30.00F
$$

KYZ035>037-039>044-047>052-055>060-089>105-250900-
NORTHEAST KENTUCKY

CITY           SKY/WX    TMP DP  RH WIND       PRES   REMARKS
LEXINGTON      CLEAR     65  60  84 CALM      30.04S
COVINGTON      PTCLDY    64  59  83 CALM      30.03F
FRANKFORT      CLEAR     63  59  87 CALM      30.02S
$$

KYZ054-064>069-076>088-106>120-250900-
SOUTHEAST KENTUCKY

CITY           SKY/WX    TMP DP  RH WIND       PRES   REMARKS
JACKSON        CLEAR     66  61  84 CALM      30.05F
LONDON         CLEAR     64  61  90 CALM      30.04S
SOMERSET       CLEAR     61  61 100 CALM      30.05S
MIDDLESBORO    MOCLDY    60  60 100 CALM      30.07S
MONTICELLO     MOSUNNY   61  59  94 W3        30.05S FOG
$$




USA.gov is the U.S. government's official web portal to all federal, state and local government web resources and services.